Weather History for PADQ - May, 2013

Change the Weather History Date:

Thursday, May 16, 2013

  Actual Average Record
Temperature  
Mean Temperature 41 °F 44 °F  
Max Temperature 43 °F 50 °F 66 °F (2014)
Min Temperature 38 °F 39 °F 28 °F (1966)
Degree Days  
Heating Degree Days 24 21  
Month to date heating degree days 371 354  
Since 1 July heating degree days 8241 8046  
Cooling Degree Days 0    
Month to date cooling degree days 0  
Year to date cooling degree days 0  
Moisture  
Dew Point 35 °F    
Average Humidity 0    
Maximum Humidity 0    
Minimum Humidity 0    
Precipitation  
Precipitation 0.28 in 0.18 in 1.73 in (1984)
Month to date precipitation 1.51 2.75  
Year to date precipitation 24.73 28.52  
Snow  
Snow 0.00 in 0.00 in T in (1995)
Month to date snowfall 0.9 0.2  
Since 1 July snowfall 65.6 68.9  
Snow Depth 0.00 in    
Sea Level Pressure  
Sea Level Pressure 29.44 in    
Wind  
Wind Speed 16 mph (NW)    
Max Wind Speed 23 mph    
Max Gust Speed 29 mph    
Visibility 9 miles    
Events Rain    
T = Trace of Precipitation, MM = Missing Value Source: NWS Daily Summary

Daily Weather History Graph

Daily Weather History Graph

Search for Another Location

Airport or City:

Trip Planner

Search our weather history database for the weather conditions in past years. The results will help you decide how hot, cold, wet, or windy it might be!

Date:

Astronomy

May. 16, 2013 Rise Set
Actual Time 5:44 AM AKDT 10:29 PM AKDT
Civil Twilight 4:48 AM AKDT 11:26 PM AKDT
Nautical Twilight 3:07 AM AKDT 1:11 AM AKDT
Astronomical Twilight Sun does not rise Sun does not rise
Moon 11:56 AM AKDT (5/16) 2:31 AM AKDT (5/16)
Length of Visible Light 18h 37m
Length of Day
16h 45m
Waxing Crescent, 37% of the Moon is Illuminated
May 16
Waxing Crescent
May 17
First Quarter
May 24
Full
May 31
Last Quarter
Jun 8
New

Hourly Weather History & Observations

Time (AKDT) Temp. Windchill Dew Point Humidity Pressure Visibility Wind Dir Wind Speed Gust Speed Precip Events Conditions
12:45 AM 39.2 °F 29.6 °F 37.4 °F 93% 29.56 in 5.0 mi NE 19.6 mph - 0.04 in Rain Light Rain
12:53 AM 39.0 °F 29.9 °F 36.0 °F 89% 29.56 in 6.0 mi NNE 17.3 mph - 0.04 in Rain Light Rain
1:06 AM 39.2 °F 30.2 °F 35.6 °F 87% 29.54 in 7.0 mi NNE 17.3 mph - 0.02 in Rain Light Rain
1:53 AM 39.9 °F 31.8 °F 36.0 °F 86% 29.52 in 8.0 mi North 15.0 mph 23.0 mph 0.04 in Rain Light Rain
2:00 AM 39.2 °F 30.8 °F 35.6 °F 87% 29.51 in 6.0 mi North 15.0 mph 23.0 mph 0.00 in Rain Light Rain
2:53 AM 39.0 °F 31.0 °F 36.0 °F 89% 29.49 in 6.0 mi NNW 13.8 mph 20.7 mph 0.07 in Rain Rain
3:53 AM 37.9 °F 30.5 °F 35.1 °F 89% 29.47 in 6.0 mi NNW 11.5 mph - 0.06 in Rain Light Rain
4:53 AM 37.9 °F 28.9 °F 35.1 °F 89% 29.44 in 4.0 mi WNW 16.1 mph - 0.02 in Rain Light Rain
5:53 AM 37.9 °F 29.2 °F 34.0 °F 86% 29.43 in 9.0 mi WNW 15.0 mph - 0.03 in Rain Light Rain
6:23 AM 37.4 °F 28.5 °F 33.8 °F 87% 29.42 in 10.0 mi WNW 15.0 mph - 0.01 in Rain Light Rain
6:53 AM 39.0 °F 30.6 °F 35.1 °F 86% 29.42 in 10.0 mi WNW 15.0 mph - 0.01 in Rain Light Rain
7:53 AM 39.0 °F 30.3 °F 35.1 °F 86% 29.41 in 10.0 mi WNW 16.1 mph - 0.00 in   Overcast
8:53 AM 39.9 °F 31.4 °F 35.1 °F 83% 29.40 in 10.0 mi WNW 16.1 mph 21.9 mph N/A   Overcast
9:53 AM 39.0 °F 30.6 °F 35.1 °F 86% 29.41 in 10.0 mi NW 15.0 mph - 0.00 in   Overcast
10:53 AM 39.9 °F 32.1 °F 36.0 °F 86% 29.40 in 10.0 mi NW 13.8 mph 20.7 mph 0.00 in Rain Light Rain
11:53 AM 41.0 °F 33.5 °F 36.0 °F 82% 29.40 in 10.0 mi WNW 13.8 mph - 0.00 in   Overcast
12:53 PM 41.0 °F 32.8 °F 36.0 °F 82% 29.39 in 10.0 mi WNW 16.1 mph - 0.00 in   Overcast
1:53 PM 42.1 °F 35.2 °F 37.9 °F 85% 29.40 in 7.0 mi WNW 12.7 mph - 0.00 in Rain Light Rain
2:53 PM 43.0 °F 35.4 °F 37.0 °F 80% 29.40 in 10.0 mi WNW 16.1 mph 23.0 mph 0.01 in Rain Light Rain
3:53 PM 43.0 °F 34.8 °F 36.0 °F 76% 29.40 in 10.0 mi WNW 18.4 mph 24.2 mph 0.01 in Rain Light Rain
4:53 PM 42.1 °F 33.1 °F 37.0 °F 82% 29.40 in 8.0 mi WNW 20.7 mph 26.5 mph 0.00 in Rain Light Rain
5:53 PM 42.1 °F 33.3 °F 37.0 °F 82% 29.39 in 10.0 mi WNW 19.6 mph 24.2 mph 0.01 in Rain Light Rain
6:53 PM 41.0 °F 31.4 °F 35.1 °F 79% 29.39 in 10.0 mi WNW 21.9 mph 28.8 mph 0.00 in Rain Light Rain
7:53 PM 39.9 °F 30.5 °F 34.0 °F 79% 29.40 in 10.0 mi WNW 19.6 mph 27.6 mph 0.02 in   Overcast
8:53 PM 39.9 °F 30.5 °F 34.0 °F 79% 29.40 in 10.0 mi WNW 19.6 mph 28.8 mph N/A   Overcast
9:53 PM 39.0 °F 31.4 °F 33.1 °F 79% 29.43 in 10.0 mi NW 12.7 mph 23.0 mph 0.00 in   Overcast
10:53 PM 37.9 °F 30.9 °F 34.0 °F 86% 29.44 in 10.0 mi WNW 10.4 mph 19.6 mph 0.00 in Rain Light Rain
11:53 PM 39.0 °F 32.8 °F 34.0 °F 82% 29.44 in 10.0 mi NW 9.2 mph 24.2 mph 0.00 in Rain Light Rain